Wind_Speed
12 12 12 12 13 13 12 12 12 13 13 14 14 15 15 15 15 15 15 15 15 15 16 15 15 15 15 16 16 17 17 18 19 20 20 20 21 20 20 20 20 20 21
13 13 13 13 13 13 13 13 13 14 14 14 14 14 15 15 15 15 15 15 15 15 15 16 15 15 15 15 17 17 17 18 19 20 20 20 20 20 20 20 20 20 21
15 15 15 14 14 14 14 14 14 15 15 15 15 14 14 15 15 16 16 15 15 15 15 16 16 16 16 16 17 17 17 18 19 19 18 18 19 20 20 21 21 21 21
16 15 15 15 15 15 15 15 16 15 16 15 15 15 15 15 15 16 16 16 16 17 17 17 17 17 17 17 18 18 18 19 19 19 19 19 20 20 20 21 21 21 21
16 16 15 15 16 16 16 16 16 16 16 16 16 16 16 16 16 16 16 16 17 18 18 18 19 19 19 19 19 19 19 19 20 20 20 20 21 21 21 21 22 22 22
17 16 16 16 16 16 16 16 16 16 17 17 17 17 16 16 17 17 17 18 18 19 19 19 20 20 19 19 19 20 20 21 21 21 21 21 21 21 22 22 22 22 23
17 17 17 17 17 16 16 16 16 17 17 17 18 17 16 17 18 18 18 19 19 20 20 20 20 20 20 20 20 20 21 21 21 22 21 21 21 22 22 22 22 22 22
18 18 18 18 17 17 17 17 17 17 18 17 17 17 17 18 19 19 19 19 20 20 20 20 21 21 21 21 21 21 22 22 23 23 23 22 21 22 22 23 24 24 24
19 19 19 19 19 18 18 18 18 18 18 18 18 19 19 19 19 20 20 20 20 20 21 21 21 21 22 22 22 22 23 23 23 24 23 23 23 23 24 24 25 26 26
20 20 20 20 19 19 19 19 19 19 19 20 20 20 20 20 20 20 21 21 21 21 22 23 22 22 23 23 23 23 23 24 24 24 24 24 24 25 25 26 26 27 27
22 21 21 21 21 21 21 21 21 21 21 21 21 20 20 21 21 21 22 22 23 23 24 24 24 24 24 25 25 25 25 26 25 25 25 26 26 27 27 28 28 29 29
24 23 23 22 23 23 23 22 22 22 22 22 22 21 22 22 23 23 24 24 24 24 25 25 25 26 25 25 25 26 26 26 27 26 26 27 27 28 29 30 29 29 29
25 25 25 24 24 24 24 24 24 24 24 24 24 24 24 25 25 26 26 25 25 25 25 26 26 27 26 26 26 26 26 26 26 27 27 28 29 30 30 30 30 31 31
26 27 26 26 26 26 26 26 26 26 27 27 26 26 26 26 26 27 27 26 26 27 26 26 27 27 27 27 27 27 28 27 27 27 28 29 29 30 31 31 31 31 32
28 28 28 28 28 28 28 28 28 28 28 28 28 28 27 26 26 27 27 27 27 27 27 27 27 27 28 28 28 28 29 29 29 29 30 30 30 30 31 31 32 32 32
30 30 30 30 30 30 30 30 30 30 30 30 30 29 28 27 27 28 28 28 28 29 29 28 28 29 29 29 29 30 30 30 30 30 31 32 32 32 32 32 32 33 33
32 31 31 32 32 32 32 32 32 32 32 31 31 30 30 29 29 29 29 30 30 30 29 29 29 30 30 30 30 31 31 31 32 32 33 33 33 34 34 34 34 35 34
33 33 33 33 33 33 33 33 33 33 33 32 32 32 31 31 31 30 30 31 30 31 30 30 30 31 31 31 31 32 32 33 33 33 34 34 34 35 35 36 36 36 36
33 33 33 34 34 34 34 34 34 34 33 33 32 32 32 32 33 32 32 31 31 31 31 30 31 31 32 32 33 33 33 34 34 35 35 36 36 36 36 36 36 36 37
33 33 33 33 33 34 34 34 34 34 34 33 33 32 33 33 33 33 33 33 32 32 31 31 32 32 33 33 33 34 35 35 36 36 36 36 36 36 36 37 37 37 37
33 34 34 34 34 34 34 34 34 34 34 33 33 33 33 34 34 35 35 34 34 34 34 34 33 33 34 34 35 35 36 36 36 37 37 37 37 38 38 38 38 38 38
34 34 34 34 34 34 34 34 34 33 33 34 34 34 35 34 35 35 35 35 35 34 35 35 34 35 35 35 35 36 37 37 37 37 37 37 38 38 39 39 39 39 39
35 34 34 34 35 35 34 34 34 33 33 33 34 34 34 34 35 35 35 35 35 35 35 35 34 35 36 36 36 36 36 37 37 37 38 38 38 38 38 39 39 39 40
34 34 34 35 35 35 34 34 34 34 34 34 34 34 34 35 35 35 36 35 35 35 35 34 34 34 35 36 36 36 36 37 37 37 37 38 38 38 38 39 40 40 40
34 34 34 34 34 34 34 34 34 34 34 35 35 35 35 35 35 35 35 36 35 35 34 34 34 35 36 36 36 36 37 37 37 37 38 38 38 38 38 39 39 39 40
33 33 33 33 33 34 34 34 34 34 35 35 35 35 35 34 34 35 35 35 35 36 36 35 36 36 37 37 37 37 38 38 38 38 39 39 39 38 38 39 39 40 40
Wind_Direction
291 289 293 295 294 294 294 291 288 287 285 284 284 285 284 281 278 278 279 278 276 274 274 273 275 270 266 265 266 266 266 267 269 271 271 270 269 269 270 272 274 275 276
289 289 290 291 292 291 291 290 289 287 285 285 285 285 284 283 279 279 280 277 276 277 274 273 274 271 267 267 266 266 266 267 268 271 272 269 269 269 270 272 274 276 276
289 291 290 290 289 289 288 288 287 285 283 284 285 284 284 284 283 283 282 279 278 278 277 275 273 272 270 271 270 267 265 268 271 272 272 273 272 271 271 271 273 276 277
288 290 290 291 290 290 289 288 285 283 282 283 283 284 284 283 283 283 282 279 279 279 279 277 275 276 275 276 276 274 273 272 272 273 274 275 274 273 273 273 274 275 276
290 290 290 289 290 289 288 287 285 284 283 282 283 283 283 282 282 283 281 279 278 279 279 280 280 278 277 276 276 276 276 274 274 274 274 275 275 273 273 274 276 276 276
291 291 289 290 291 290 288 286 284 284 284 283 282 281 280 280 282 283 280 279 279 278 279 280 281 280 278 277 276 276 278 277 277 275 275 275 274 272 272 273 275 276 275
289 289 288 288 287 287 287 286 283 283 284 284 282 281 280 279 280 281 280 280 281 281 280 280 281 280 279 279 277 277 278 278 276 274 276 276 274 272 273 274 276 277 276
285 286 286 286 286 286 287 286 284 284 285 285 284 281 280 279 279 279 280 281 281 282 281 280 279 279 279 279 278 277 277 276 275 274 276 276 275 274 274 276 276 276 275
284 284 283 282 283 285 286 285 283 284 284 285 284 280 278 279 278 280 281 281 281 280 281 279 279 279 279 279 279 279 277 276 275 276 275 274 274 274 274 277 277 276 276
285 286 284 282 282 283 285 283 282 282 283 283 283 281 279 278 278 281 283 283 281 279 279 278 279 280 279 279 279 279 278 277 276 274 273 273 274 275 275 276 277 277 276
284 284 284 283 283 282 282 282 281 281 282 284 283 282 281 279 280 282 283 282 281 279 279 279 278 279 280 279 279 279 279 277 276 276 274 273 274 276 277 278 278 279 279
281 282 281 281 281 281 280 280 280 280 282 283 283 283 281 280 281 283 283 281 281 280 279 280 280 280 280 280 280 279 279 279 277 275 274 274 274 276 278 280 279 279 279
279 279 279 279 280 279 279 279 278 279 281 282 282 282 281 280 281 282 283 282 280 280 279 278 279 280 280 280 281 281 281 280 279 276 276 276 277 276 278 280 279 279 280
278 278 278 278 278 278 278 278 279 280 281 281 282 282 281 279 280 282 282 283 282 281 280 279 279 279 279 280 280 281 281 281 280 278 278 278 279 278 278 280 281 281 281
277 277 276 277 277 278 278 279 279 281 281 282 282 283 282 279 281 282 281 282 283 283 280 279 279 280 280 280 280 280 280 280 279 279 279 278 279 279 280 281 282 282 282
276 276 275 276 277 278 278 278 278 280 281 281 282 282 282 280 282 282 282 282 282 282 281 281 280 280 280 279 279 279 279 279 279 279 279 279 278 278 280 281 283 283 282
275 275 275 276 277 278 278 278 278 279 279 279 280 280 280 279 281 282 282 281 280 281 281 281 280 279 279 278 278 278 278 278 278 278 278 278 278 278 278 279 282 283 282
275 275 276 277 277 277 277 277 277 277 278 278 278 278 279 279 280 280 280 281 280 280 280 280 280 279 278 278 278 279 279 279 278 279 279 279 279 279 279 280 281 282 281
274 274 275 277 276 276 277 277 276 276 277 277 276 276 277 278 279 280 281 281 281 281 280 280 280 280 279 278 278 279 280 279 279 279 280 280 279 280 281 282 282 282 282
274 275 275 276 276 276 277 277 277 277 277 275 275 275 276 277 278 279 280 281 282 281 282 282 280 280 280 279 278 278 279 280 280 280 281 281 281 280 280 280 281 281 282
275 275 274 275 277 277 277 278 278 277 276 275 275 275 276 277 278 279 280 281 281 280 282 282 281 280 281 280 279 279 280 281 281 280 280 281 280 280 280 281 282 282 282
275 275 275 275 276 277 277 277 277 277 277 276 276 276 277 277 278 279 279 281 282 282 282 281 280 280 281 281 281 281 282 282 281 281 281 281 280 280 281 282 282 282 282
275 275 275 274 275 277 276 276 276 277 278 278 277 277 277 277 279 279 279 280 281 282 282 282 281 281 281 281 281 281 282 282 283 283 282 282 282 282 282 282 282 282 283
275 274 274 275 276 276 276 276 276 277 277 278 278 279 278 278 278 278 278 280 281 282 282 282 282 281 281 281 281 282 282 283 283 283 283 283 284 283 283 284 284 284 284
275 275 275 275 276 276 276 276 277 277 278 279 279 280 279 278 278 278 278 279 279 281 281 282 283 283 283 282 282 282 283 283 283 284 283 282 283 283 284 284 284 284 285
275 275 275 275 275 276 276 276 277 277 278 279 279 280 279 278 278 279 279 279 279 279 280 282 283 283 284 284 283 283 283 283 284 284 284 283 283 283 284 284 284 284 285
Height
5818 5817 5816 5815 5813 5812 5811 5810 5809 5808 5807 5805 5804 5803 5802 5801 5801 5800 5799 5799 5798 5798 5797 5796 5796 5795 5795 5795 5795 5795 5795 5795 5795 5795 5795 5795 5795 5795 5795 5795 5795 5795 5794
5815 5814 5812 5811 5809 5808 5807 5806 5805 5803 5802 5801 5800 5799 5798 5797 5796 5796 5795 5794 5794 5793 5792 5792 5791 5791 5790 5790 5790 5790 5790 5790 5790 5789 5789 5789 5789 5789 5789 5789 5789 5789 5788
5811 5809 5808 5807 5805 5804 5802 5801 5800 5799 5798 5797 5796 5794 5793 5792 5792 5791 5791 5790 5789 5789 5788 5787 5787 5786 5786 5785 5785 5785 5784 5784 5784 5784 5783 5783 5783 5783 5783 5784 5783 5783 5782
5806 5805 5803 5802 5800 5799 5798 5796 5795 5794 5793 5792 5791 5790 5789 5788 5787 5787 5786 5785 5785 5784 5783 5783 5782 5781 5781 5780 5780 5779 5779 5778 5778 5778 5778 5777 5777 5777 5777 5778 5777 5777 5776
5801 5800 5798 5797 5796 5794 5793 5791 5790 5789 5788 5787 5786 5785 5784 5783 5783 5782 5781 5780 5780 5779 5778 5778 5777 5776 5775 5775 5774 5774 5773 5773 5772 5772 5772 5771 5771 5771 5771 5771 5771 5770 5769
5796 5795 5793 5792 5790 5789 5788 5786 5785 5784 5783 5782 5781 5780 5779 5778 5777 5777 5776 5775 5774 5774 5773 5772 5771 5771 5770 5769 5768 5768 5767 5767 5766 5766 5765 5765 5764 5764 5764 5764 5764 5763 5762
5791 5790 5788 5787 5785 5784 5782 5781 5780 5779 5778 5777 5776 5775 5774 5773 5772 5771 5771 5770 5769 5768 5767 5766 5765 5765 5764 5763 5762 5761 5761 5760 5760 5759 5759 5758 5758 5757 5757 5757 5756 5756 5755
5786 5784 5783 5781 5780 5779 5777 5776 5775 5773 5772 5771 5770 5770 5769 5768 5767 5766 5765 5764 5763 5762 5761 5760 5759 5758 5758 5757 5756 5755 5754 5753 5753 5752 5752 5751 5751 5750 5750 5750 5749 5748 5747
5780 5779 5777 5776 5774 5773 5772 5770 5769 5768 5767 5766 5765 5764 5763 5762 5761 5760 5759 5758 5757 5756 5755 5754 5753 5752 5751 5750 5749 5748 5747 5747 5746 5745 5744 5744 5743 5743 5742 5742 5741 5740 5740
5774 5772 5771 5770 5769 5767 5766 5764 5763 5762 5761 5760 5759 5758 5757 5756 5755 5754 5753 5752 5751 5750 5749 5748 5747 5746 5744 5743 5742 5742 5741 5740 5739 5738 5737 5737 5736 5735 5734 5734 5733 5732 5731
5767 5766 5765 5763 5762 5761 5760 5759 5757 5756 5755 5754 5753 5752 5751 5750 5749 5748 5746 5745 5744 5742 5741 5741 5740 5738 5737 5736 5735 5734 5733 5732 5731 5731 5730 5729 5728 5727 5726 5725 5724 5723 5722
5760 5759 5758 5757 5756 5754 5753 5752 5751 5750 5749 5748 5746 5745 5744 5743 5742 5741 5739 5738 5736 5735 5734 5733 5732 5731 5730 5729 5727 5727 5726 5725 5724 5723 5722 5721 5720 5719 5718 5716 5715 5714 5713
5753 5752 5751 5750 5748 5747 5746 5745 5744 5743 5742 5741 5739 5738 5737 5736 5734 5733 5732 5730 5729 5727 5726 5725 5724 5723 5722 5721 5720 5719 5718 5716 5715 5715 5714 5713 5711 5710 5709 5707 5706 5705 5703
5744 5743 5742 5741 5740 5739 5738 5737 5736 5735 5734 5733 5731 5730 5729 5728 5726 5725 5723 5722 5720 5719 5718 5717 5715 5714 5714 5713 5712 5711 5710 5708 5707 5706 5705 5704 5702 5701 5699 5698 5696 5695 5693
5735 5735 5734 5733 5732 5731 5730 5729 5727 5726 5725 5724 5723 5722 5720 5719 5718 5716 5714 5713 5712 5711 5709 5708 5707 5706 5705 5704 5703 5702 5701 5699 5698 5697 5696 5694 5693 5691 5690 5688 5686 5685 5683
5726 5725 5724 5723 5722 5721 5720 5719 5718 5717 5716 5715 5713 5712 5711 5710 5709 5707 5705 5704 5703 5701 5700 5699 5698 5697 5696 5695 5694 5692 5691 5690 5689 5687 5686 5685 5683 5682 5680 5678 5677 5675 5673
5716 5715 5714 5714 5713 5711 5710 5709 5708 5707 5706 5705 5704 5702 5701 5700 5699 5698 5696 5694 5693 5691 5690 5689 5688 5687 5685 5684 5683 5682 5681 5680 5679 5677 5676 5674 5673 5672 5670 5668 5666 5664 5662
5705 5705 5704 5703 5702 5701 5700 5699 5698 5697 5696 5695 5694 5692 5691 5690 5689 5687 5686 5684 5683 5681 5680 5679 5678 5676 5675 5674 5673 5672 5671 5669 5668 5667 5665 5664 5662 5661 5659 5657 5655 5653 5651
5695 5694 5693 5692 5690 5689 5688 5687 5686 5685 5685 5684 5683 5682 5681 5679 5678 5677 5675 5674 5672 5671 5670 5668 5667 5666 5664 5663 5662 5661 5660 5658 5657 5656 5654 5653 5651 5649 5648 5646 5644 5642 5640
5684 5683 5681 5680 5679 5677 5676 5675 5675 5674 5673 5673 5672 5671 5670 5668 5667 5666 5664 5663 5662 5660 5659 5657 5656 5654 5653 5652 5651 5649 5648 5647 5645 5644 5642 5641 5639 5637 5636 5635 5633 5631 5628
5672 5672 5670 5669 5668 5666 5665 5664 5663 5662 5662 5661 5660 5659 5658 5657 5656 5654 5653 5652 5650 5649 5647 5646 5644 5643 5641 5640 5639 5638 5636 5635 5634 5632 5631 5629 5627 5625 5624 5622 5620 5619 5616
5661 5660 5659 5658 5657 5655 5654 5653 5652 5651 5650 5649 5648 5647 5646 5645 5644 5643 5642 5640 5639 5637 5636 5634 5632 5631 5630 5628 5627 5626 5624 5623 5621 5620 5618 5617 5615 5613 5611 5609 5608 5606 5604
5649 5648 5647 5647 5645 5644 5643 5642 5641 5640 5639 5638 5637 5636 5635 5634 5632 5631 5630 5629 5628 5626 5624 5622 5621 5619 5618 5616 5615 5613 5612 5611 5609 5608 5606 5604 5602 5601 5599 5597 5595 5593 5591
5638 5637 5636 5635 5634 5632 5631 5630 5629 5628 5628 5627 5625 5624 5623 5622 5621 5619 5618 5617 5616 5614 5612 5611 5609 5608 5606 5605 5603 5602 5600 5599 5597 5595 5594 5592 5590 5588 5586 5584 5582 5580 5578
5626 5625 5624 5623 5622 5621 5620 5619 5618 5617 5616 5615 5614 5613 5611 5610 5609 5608 5606 5605 5604 5602 5601 5599 5598 5596 5595 5593 5592 5590 5588 5587 5585 5583 5581 5580 5578 5576 5573 5571 5569 5567 5564
5614 5613 5612 5611 5610 5609 5608 5607 5606 5605 5604 5603 5602 5601 5599 5598 5597 5596 5595 5593 5592 5591 5589 5588 5586 5584 5583 5581 5580 5578 5576 5574 5572 5570 5569 5567 5565 5563 5561 5558 5556 5553 5551